Regional Weather Roundup
Issued by NWS

Home | Current Version | Previous Version | Text Only | Print | Product List | Glossary On
Versions: 1 2 3 4 5 6 7 8 9 10 11 12 13 14 15 16 17 18 19 20 21 22 23 24 25 26 27 28 29 30 31 32 33 34 35 36 37 38 39 40 41 42 43 44 45 46 47 48 49 50
000
ASCA42 TJSJ 062010
RWRPR
PUERTO RICO/U.S. VIRGIN ISLANDS HOURLY WEATHER ROUNDUP
NATIONAL WEATHER SERVICE SAN JUAN PR
400 PM AST SAT FEB 06 2016

PRZ001-004-062100-
PUERTO RICO

CITY           SKY/WX    TMP DP  RH WIND       PRES   REMARKS
SAN JUAN LMM   MOSUNNY   84  64  51 SE9       29.99S
MAYAGUEZ       MOSUNNY   88  63  42 S8        30.00F
AGUADILLA      MOSUNNY   79  68  69 NE10      30.01S
CEIBA          CLOUDY    79  72  78 SE10      30.03F
$$

PRZ006-007-062100-
U.S. VIRGIN ISLANDS

CITY           SKY/WX    TMP DP  RH WIND       PRES   REMARKS
CHARLOTTE AMA  MOSUNNY   81  72  74 SE13      30.01S
CHRISTIANSTED  PTSUNNY   82  72  69 SE14      30.02S
$$

HOURLY WEATHER ROUNDUP FOR THE NEWS MEDIA

CITY           SKY/WX    TMP DP  RH WIND       PRES   REMARKS
ORLANDO        LGT RAIN  63  59  87 NE10      30.08F
NEW YORK       CLOUDY    38  20  48 SW10      30.33F WCI  31
NEWARK         PTSUNNY   40  20  44 S13       30.31F WCI  32
CHICAGO        MOSUNNY   39  28  64 W13       30.16F WCI  31
HARTFORD       PTSUNNY   34  24  67 SW10      30.31F WCI  26
BOSTON         PTSUNNY   35  24  64 SW16      30.28F WCI  25
DALLAS         PTSUNNY   48  36  63 NW7       30.36F
PHILADELPHIA   PTSUNNY   42  19  39 S10       30.33F
LOS ANGELES    SUNNY     74  19  12 W5        30.23F
WASHINGTON DC  PTSUNNY   43  20  39 S9        30.30F


USA.gov is the U.S. government's official web portal to all federal, state and local government web resources and services.